Vorticity
4 5 6 7 6 8 8 7 6 4 8 9 3 1 2 5 7 8 12 6 11 8
5 6 7 8 7 7 8 7 6 6 11 4 3 3 3 6 3 1 10 9 11 27
5 4 6 7 7 8 8 8 4 12 6 5 3 5 2 6 9 11 12 16 29 26
5 6 4 7 8 9 10 5 10 7 3 1 6 3 1 9 12 9 14 31 29 29
6 4 7 7 10 10 5 8 8 2 2 4 6 5 14 6 10 16 30 29 30 26
10 4 7 8 10 7 7 6 4 0 3 5 11 11 7 7 7 36 31 28 24 20
7 7 6 10 9 3 5 8 4 4 6 7 9 7 7 10 22 35 28 25 21 13
8 7 12 8 5 0 5 6 3 4 0 1 6 6 21 18 25 28 28 21 16 10
8 12 8 5 5 3 8 4 2 12 6 13 11 17 19 24 24 28 23 17 12 9
9 7 7 4 -4 -6 -7 -0 20 1 2 9 10 20 19 22 31 24 18 13 11 12
6 4 9 0 8 4 5 25 -1 10 9 18 14 24 14 32 28 18 14 13 12 10
5 -5 11 9 3 13 18 -5 -0 10 7 21 11 21 24 30 21 15 14 9 10 11
-10 7 7 6 16 7 -1 -3 8 11 14 12 16 27 26 23 16 13 9 9 13 11
-11 -1 0 6 22 5 -8 7 9 5 6 26 30 24 22 17 13 11 10 13 11 10
Height
5726 5720 5714 5708 5701 5694 5686 5679 5672 5665 5658 5650 5641 5632 5621 5610 5599 5588 5575 5562 5548 5533
5716 5710 5703 5697 5690 5683 5676 5669 5660 5653 5645 5636 5626 5616 5604 5593 5582 5569 5556 5541 5528 5511
5706 5700 5694 5687 5680 5672 5664 5657 5649 5640 5631 5622 5611 5601 5590 5578 5563 5551 5536 5520 5505 5492
5695 5689 5682 5675 5667 5660 5652 5644 5635 5627 5618 5608 5598 5587 5574 5562 5548 5531 5516 5501 5488 5476
5685 5677 5670 5663 5655 5647 5639 5630 5621 5612 5603 5592 5582 5569 5556 5542 5527 5511 5496 5484 5472 5463
5672 5665 5657 5649 5641 5633 5625 5616 5606 5597 5587 5576 5563 5551 5537 5523 5508 5492 5478 5467 5458 5451
5659 5652 5644 5636 5627 5619 5610 5601 5592 5582 5571 5561 5547 5532 5518 5503 5487 5474 5463 5454 5446 5441
5647 5639 5631 5623 5614 5606 5596 5587 5577 5566 5555 5544 5531 5516 5501 5485 5469 5459 5450 5443 5437 5431
5634 5626 5618 5610 5601 5592 5582 5572 5561 5550 5538 5525 5513 5495 5483 5468 5454 5447 5439 5433 5427 5422
5620 5613 5604 5595 5587 5577 5566 5556 5545 5534 5519 5507 5496 5479 5467 5453 5443 5437 5430 5424 5419 5414
5608 5599 5590 5582 5573 5562 5551 5540 5528 5515 5502 5489 5479 5465 5452 5441 5434 5427 5421 5416 5412 5406
5592 5585 5576 5567 5556 5546 5535 5524 5511 5497 5487 5474 5461 5450 5438 5431 5425 5419 5414 5409 5404 5400
5580 5571 5561 5550 5540 5529 5519 5507 5497 5484 5469 5458 5445 5439 5428 5422 5417 5412 5407 5403 5397 5393
5564 5554 5544 5534 5523 5513 5502 5492 5481 5470 5457 5447 5437 5426 5420 5414 5409 5405 5401 5396 5392 5386